Notices

What's New in latest Release from April 7th, 2021:

- Updated Glossary, including Speed of Maximum Gust, and Total Hourly Precipitation

- Updated national and regional climate services offices contacts and prices information

- Addition of station inventory lists for 1981-2010, 1971-2000, and 1961-1990 Normals.

If you haven't already, please take our survey and provide feedback about our website: https://eccc.sondage-survey.ca/f/LanguageSelection.aspx?s=442ca660-fcf1-47c0-95a9-59707d6fd709

Hourly Data Report for June 23, 2004

SHERBROOKE A
QUEBEC

45°26'00.000" N
71°41'00.000" W
241.40 m
7028124
71610
YSC

Download Data

Hourly Data (June 2004)
Hourly Data Report for June 23, 2004
TIME
LST
Temp Definition
°C
Dew Point Definition
°C
Rel Hum Definition
%
Precip. Amount Definition
mm

Wind Dir Definition
10's deg

Wind Spd Definition
km/h
Visibility Definition
km
Stn Press Definition
kPa
Hmdx Definition


Wind Chill Definition


Weather Definition


00:00 16.3 15.0 92   21 6 4.8 97.75      
01:00 15.9 14.7 93   25 11 4.8 97.82      
02:00 15.4 14.1 92   25 7 6.4 97.85      
03:00 15.1 13.8 92   22 6 5.6 97.88      
04:00 14.8 13.5 92   24 6 5.6 97.93      
05:00 14.3 13.0 92   23 6 5.6 97.99      
06:00 14.8 13.4 91   27 6 9.7 98.05      
07:00 15.6 13.8 89   27 11 19.3 98.11     Mostly Cloudy
08:00 16.4 13.7 84   29 15 24.1 98.15     Mostly Cloudy
09:00 17.9 13.7 76   26 19 24.1 98.19     Mainly Clear
10:00 18.8 13.4 71   27 19 24.1 98.24     Mainly Clear
11:00 19.7 13.0 65   27 19 24.1 98.28     Mostly Cloudy
12:00 21.5 12.8 58   26 20 24.1 98.30     Mainly Clear
13:00 22.3 12.7 55   29 24 24.1 98.31 25   Mainly Clear
14:00 22.8 12.6 53   28 19 24.1 98.33 25   Mainly Clear
15:00 23.2 12.8 52   28 19 24.1 98.38 26   Mainly Clear
16:00 22.6 12.1 51   30 17 24.1 98.40 25   Mainly Clear
17:00 22.3 12.1 52   28 15 15.0 98.44 25    
18:00 21.5 11.3 52   27 17 15.0 98.50      
19:00 19.7 11.1 58   24 7 15.0 98.54      
20:00 14.0 10.9 82   23 6 15.0 98.58      
21:00 12.5 10.0 85   19 6 15.0 98.62      
22:00 11.0 9.2 89   7 4 15.0 98.65      
23:00 10.3 8.9 91   8 6 15.0 98.67      

Notes on Data Quality.

Legend

  • E = Estimated
  • M = Missing
  • NA = Not Available*
  • [empty] = Indicates an unobserved value
Date modified: